STARLINK-2524, 48304

Orbit data source: Space-Track

STARLINK-2524, 48304 is a payload satellite owned by SpaceX/Seattle (US) in LEO that was launched on Thu, 29 Apr 2021 UTC via an FALCON 9 launch vehicle from the Air Force Eastern Test Range (AFETR). Payload-class satellites include a variety of spacecraft equipped with specific instruments for various scientific and technological missions. These include communications satellites like Starlink; space stations such as the ISS; scientific satellites like the Hubble; Earth observation satellites from companies like Planet Labs, Umbra, and HawkEye 360; GPS; miniature CubeSats for education and research; and military/defense satellites.

Loading next visibility...
Identifier
48304, 2021-036AE
Orbit
LEO
Country
Flag of USUS
Related business
Manufacturer
SpaceX/Seattle
Mission
Operational Commercial Communications
Bus & Motor
STARLINK, Unknown motor
Mass
260 kg wet, ~248 kg dry
Launch date (UTC)
2021-04-29 (5 years ago)
Launch vehicle
FALCON 9
Launch site
Air Force Eastern Test Range (AFETR)
Object type
Payload
Rocket body
Debris
Shape & HBR
Box + 1 Pan, 10.1 m
Radar Cross Section
13.562 m², Large (>1 m²)

Expand to show TLE details & history
Last TLE update: 12 hours ago

TLE from 12 hours ago
0 STARLINK-2524
1 48304U 21036AE  25304.27272552  .00002409  00000-0  18055-3 0  9994
2 48304  53.0548 312.5930 0001608 115.6868 244.4287 15.06403542248666
Epoch: 2025-10-31T06:32Z
TLE epoch observation values (Epoch: 2025-10-31T06:32:43.484Z)
Latitude
-0.00006°
Longitude
174.59224°
Altitude
548.561 km
Speed
7.589 km/s
True Right ascension
20h 50m 22s
True Declination
0° 00' 00"
Sunlit
Object was in daylight at epoch
Visualization orbit readout
Latitude
Unknown
Longitude
Unknown
Altitude
Unknown
Speed
Unknown
Apparent Right ascension
Unknown
Apparent Declination
Unknown
Sunlit
N/A
Visualization observer readout
Local Sidereal Time
14:29:29
Azimuth
Unknown
Elevation
Unknown
Doppler factor
Unknown
Orbital elements
Apogee altitude
548.585 km
Perigee altitude
546.358 km
Semi-major axis
6,925.608 km
Eccentricity
0.00016
Inclination
53.0548°
RAAN
312.593°
Arg. of periapsis
115.6868°
True anomaly
244.41208°
Mean anomaly
244.4287°
Eccentric anomaly
244.42039°
Mean motion
3.76579 °/min
Orbital period
95.6 mins
BSTAR
0.00018055
Loading maneuver chart data...
Computing Atmospheric mass density...
Loading historical data...
Loading historical data...
Loading historical data...
Loading historical data...
Loading historical data...
Loading historical data...
Loading historical data...

Documentation

Showing up to 5 results
|